SCP
-0 -0 -0 -0 0 0 0 0 0 0 0 0 0 0 0 0 0 0 0 0 0 0 0 0 0 0 0 0 0 0 0 0 0 0 0 0 0 0 0 0 0 0 0 0 0
-0 -0 -0 -0 -0 0 0 0 0 0 0 0 0 0 0 0 0 0 0 0 0 0 0 0 0 0 0 0 0 0 0 0 0 0 0 0 0 0 0 0 0 0 0 0 0
-0 -0 -0 -0 0 0 0 0 0 0 0 0 0 0 0 0 0 0 0 0 0 0 0 0 0 0 0 0 0 0 0 0 0 0 0 0 0 0 0 0 0 0 0 0 0
-0 -0 0 0 0 0 0 0 0 0 0 -0 -0 0 0 0 0 0 0 0 0 0 0 0 0 0 0 0 0 0 0 0 0 0 0 0 0 0 0 0 -0 -0 -0 -0 0
0 0 0 0 0 0 0 0 -0 -0 -0 -0 -0 -0 -0 0 0 0 0 0 0 0 0 0 0 0 0 0 0 0 0 0 0 0 0 0 0 0 0 0 -0 -0 -0 -0 -0
-0 -0 -0 -0 -0 -0 -0 0 0 -0 -0 -0 -0 -0 -0 -0 0 -0 0 0 0 0 0 0 0 0 0 0 0 0 0 0 0 0 0 0 0 0 -0 -0 0 0 0 0 0
-0 -0 -0 -0 0 0 0 0 -0 -0 -0 -0 -0 -0 -0 -0 -0 -0 -0 0 0 -0 -0 0 0 0 0 0 0 0 0 0 0 0 0 0 0 0 0 0 0 0 0 0 0
-0 -0 -0 -0 -0 -0 0 0 -0 -0 0 0 0 -0 -0 -0 0 -0 -0 -0 0 -0 -0 0 0 0 0 0 0 0 0 0 0 0 0 0 0 0 0 0 0 -0 -0 0 0
0 0 -0 -0 0 0 -0 -0 -0 0 0 0 0 -0 -0 0 0 0 0 -0 -0 0 -0 0 0 0 0 0 0 0 0 0 0 0 0 0 0 0 0 0 0 0 0 0 0
0 0 0 0 0 0 0 -0 0 0 0 0 0 0 -0 0 0 -0 -0 -0 -0 0 0 0 0 0 0 0 0 0 0 0 0 0 0 0 0 0 0 0 0 0 0 0 0
0 0 -0 0 0 0 0 0 0 0 0 0 0 0 -0 0 -0 -0 -0 0 0 0 -0 0 0 0 0 0 0 0 0 0 0 0 0 0 0 0 0 0 0 0 0 0 0
0 -0 -0 0 0 -0 0 0 0 0 0 0 0 0 0 0 0 -0 0 0 0 -0 0 0 -0 0 0 0 0 0 0 0 0 0 0 0 0 0 0 0 0 0 0 0 0
0 0 0 0 0 0 0 0 0 0 0 0 0 0 0 0 0 -0 0 0 0 -0 -0 -0 0 0 0 0 0 0 0 0 0 0 0 0 0 0 0 0 0 0 0 0 0
0 -0 -0 0 0 0 0 0 0 0 0 0 0 0 0 0 0 0 0 0 0 0 0 0 -0 0 0 0 0 0 0 0 0 0 0 0 0 0 0 0 0 0 0 0 0
0 0 0 0 0 0 0 0 0 0 0 0 0 0 0 0 0 0 0 0 0 0 0 0 0 0 0 0 0 0 0 0 0 0 0 0 0 -0 -0 -0 0 0 0 0 -0
0 0 0 0 0 0 0 0 0 0 0 0 0 0 0 0 0 0 0 0 0 0 0 -0 0 0 0 0 0 0 -0 -0 0 0 0 0 0 -0 0 -0 -0 -0 -0 0 0
0 0 0 0 0 0 0 0 0 0 0 0 0 0 0 0 0 0 0 0 0 0 0 0 -0 0 0 0 0 0 0 0 0 0 0 0 0 0 0 0 0 0 0 0 0
0 0 0 0 0 0 0 0 0 0 0 0 0 0 0 0 0 0 0 0 0 0 0 -0 -0 0 0 0 0 0 0 0 0 0 0 0 0 0 -0 -0 0 -0 0 0 0
0 0 0 0 0 0 0 0 0 0 0 0 0 0 0 0 0 0 0 0 0 0 -0 -0 -0 0 0 -0 0 0 0 0 0 0 0 0 0 0 0 0 0 0 0 0 0
0 0 0 0 0 0 0 0 0 0 0 0 0 0 0 0 0 0 0 0 0 0 -0 -0 -0 -0 0 0 0 0 0 0 0 0 0 0 0 0 0 0 0 0 0 -0 0
0 0 0 0 0 0 0 0 0 0 0 0 0 0 0 0 0 0 0 0 0 -0 -0 -0 0 0 -0 -0 -0 0 0 0 0 0 0 0 0 0 0 0 0 0 0 0 -0
0 0 0 0 0 0 0 0 0 0 0 0 0 0 0 0 0 0 0 0 0 0 0 -0 -0 0 0 0 0 0 0 0 0 0 0 0 0 0 0 0 0 0 0 0 0
0 0 0 0 0 0 0 0 0 0 0 0 0 0 0 0 0 0 0 0 0 0 0 0 0 0 0 0 0 0 0 0 0 0 0 0 0 0 0 0 0 0 0 0 0
0 0 0 0 0 0 0 0 0 0 0 0 0 0 0 0 0 0 0 0 0 0 0 0 0 0 0 0 0 0 0 0 0 0 0 0 0 0 0 0 0 0 0 0 0
0 0 0 0 0 0 0 0 0 0 0 0 0 0 0 0 0 0 0 0 0 -0 0 0 0 -0 -0 -0 0 0 -0 0 0 -0 0 0 -0 -0 -0 -0 -0 0 0 0 0
0 0 0 0 0 0 0 0 0 0 0 0 0 0 0 0 0 -0 -0 0 0 0 0 0 -0 -0 -0 0 0 -0 -0 -0 -0 -0 -0 0 0 -0 -0 -0 -0 -0 0 0 0
0 0 0 0 0 0 0 0 0 0 0 0 0 0 0 0 0 -0 -0 -0 -0 0 0 -0 -0 -0 -0 -0 -0 0 -0 -0 -0 -0 -0 0 0 0 0 -0 -0 -0 0 0 0
Wind_Speed_500mb
26 26 26 26 25 26 26 25 25 27 29 33 32 33 34 36 34 37 37 25 28 33 36 34 22 15 33 21 26 23 14 25 35 26 13 4 15 9 10 14 9 7 7 10 12
29 29 29 30 31 31 28 26 28 31 33 35 37 36 35 38 37 34 17 21 9 13 28 41 34 29 18 25 23 23 19 33 17 27 14 26 22 13 9 13 13 16 14 6 9
33 33 34 35 34 32 31 31 30 30 32 33 33 32 30 32 27 5 5 5 16 21 12 18 35 26 34 21 32 25 39 42 35 37 33 39 36 21 17 24 32 20 2 8 16
35 35 36 38 37 34 31 28 32 35 35 33 36 33 30 26 8 8 14 26 31 28 16 6 21 19 19 37 41 29 48 57 38 26 15 31 40 36 43 56 34 35 41 43 44
36 36 36 37 35 33 28 32 38 42 39 32 33 28 30 21 10 24 25 30 28 34 19 10 19 28 30 22 42 47 45 41 59 42 28 22 54 45 53 55 52 59 50 53 48
35 35 35 35 32 29 24 27 36 37 31 27 35 36 28 10 27 15 17 14 19 31 20 16 10 23 22 32 38 26 50 58 49 39 43 41 62 48 49 39 51 49 63 55 46
35 34 34 35 33 29 26 26 30 35 33 32 45 31 12 11 29 17 25 23 26 28 34 15 22 21 4 21 26 38 38 26 35 57 40 22 47 70 60 60 58 67 63 67 76
35 34 33 35 32 28 26 29 32 32 29 29 33 25 7 31 38 40 37 28 24 20 27 13 26 15 22 19 17 22 25 44 53 23 22 38 60 70 63 61 70 67 68 64 66
37 34 33 33 30 29 31 33 34 21 19 26 17 17 9 32 41 46 33 32 25 15 14 11 11 16 15 26 18 25 42 55 39 47 35 35 56 57 66 41 48 47 52 56 58
40 35 32 31 29 29 34 36 19 6 17 7 12 11 12 33 46 36 30 34 22 11 3 4 11 16 21 26 36 40 32 35 42 30 38 45 66 54 50 40 49 48 53 59 66
42 38 31 26 25 25 36 23 14 4 21 10 12 18 32 33 37 31 30 27 14 11 18 4 17 32 36 33 42 36 21 42 36 14 29 53 60 49 50 61 62 63 60 63 71
46 42 33 21 19 18 28 15 13 13 17 21 24 23 26 22 24 32 28 8 5 19 7 10 30 27 25 29 30 38 39 29 21 23 16 28 44 33 32 43 55 57 63 65 69
48 43 33 16 7 20 11 16 11 15 8 20 13 11 18 35 18 23 22 11 14 17 21 33 32 14 19 32 37 37 42 43 28 23 30 25 48 48 45 50 62 66 68 67 70
50 46 32 13 3 16 4 19 27 6 4 5 4 2 26 33 8 41 7 7 7 19 19 26 36 28 27 28 30 40 22 25 33 28 29 12 24 31 28 35 40 51 54 66 70
52 47 29 10 5 10 13 21 9 12 7 16 4 10 35 11 22 15 10 23 28 31 17 36 31 29 31 31 30 27 37 28 16 20 22 40 23 41 26 39 37 32 49 60 70
52 38 21 5 3 14 22 15 13 5 6 6 10 27 34 21 30 15 25 29 22 22 27 44 44 35 35 24 19 28 27 42 35 28 32 39 20 45 35 46 40 36 54 49 39
45 24 10 13 5 19 30 7 4 5 10 7 16 22 35 11 25 27 32 23 11 13 23 30 37 39 38 36 23 16 22 16 21 22 37 19 26 46 14 11 5 18 30 42 45
32 9 11 5 8 20 28 2 4 2 9 16 16 36 9 17 25 27 22 19 3 13 20 14 16 15 14 46 36 26 30 17 29 24 33 26 25 17 16 33 27 14 20 32 42
26 4 6 4 9 21 10 1 2 3 11 18 32 9 4 10 16 17 25 12 4 13 11 11 5 9 29 9 31 30 19 37 15 4 16 23 35 34 35 37 23 27 25 36 43
28 8 7 5 16 17 3 3 4 4 15 11 9 5 11 20 18 20 14 7 9 11 6 4 13 7 6 9 8 15 9 21 16 10 15 18 34 17 2 13 11 22 30 49 55
20 2 13 9 18 7 3 5 9 9 12 6 9 14 16 20 10 18 12 24 6 22 21 11 6 10 11 10 12 17 12 10 19 22 7 5 6 4 21 21 21 27 38 53 54
19 2 13 11 4 3 1 10 15 12 5 8 11 18 16 12 17 15 15 12 28 25 24 9 8 11 21 15 18 5 12 18 15 37 23 18 9 4 15 22 28 37 56 55 40
24 9 10 15 3 5 8 11 10 8 10 6 8 6 7 14 12 13 20 15 28 13 6 12 3 12 12 11 9 1 7 10 14 11 28 26 14 16 17 37 43 50 60 53 36
15 7 8 12 7 4 11 8 9 10 22 10 20 21 14 14 16 14 26 20 21 32 33 28 12 18 18 18 13 18 22 23 15 18 27 38 44 56 43 42 43 59 56 47 36
14 5 6 8 4 16 8 9 16 9 8 22 8 13 11 12 32 35 31 27 32 49 24 6 19 26 30 32 32 35 37 36 34 32 33 31 41 51 38 38 42 55 54 57 48
12 8 7 15 18 14 6 5 11 9 9 18 26 25 30 30 33 49 44 32 15 6 9 12 7 9 22 29 31 42 42 42 48 44 39 47 52 42 50 61 55 55 61 54 45
18 11 6 8 6 7 5 6 15 29 24 23 28 31 32 37 43 59 65 68 41 15 10 8 10 13 29 17 19 25 46 50 44 42 35 45 43 45 43 41 42 50 49 51 45
Wind_Direction_500mb
11 5 3 1 357 351 348 345 341 334 329 327 326 324 327 322 315 306 304 271 265 257 247 251 239 198 204 213 195 189 227 236 234 213 228 195 231 253 229 253 268 218 130 29 16
7 6 2 358 354 350 346 339 334 335 334 332 331 332 338 333 324 306 291 269 276 302 269 244 230 214 211 207 203 197 219 229 224 220 224 241 244 253 281 235 260 241 263 266 58
3 1 359 357 354 351 348 347 347 344 342 340 342 345 343 340 331 20 71 122 335 334 320 259 227 210 222 215 207 213 229 229 234 230 228 250 256 258 257 265 252 254 303 281 249
0 358 357 356 353 352 354 355 351 346 343 342 347 351 345 343 347 342 287 291 296 310 315 297 217 208 229 219 217 243 233 237 246 233 230 245 263 254 247 250 259 270 286 286 283
359 356 355 355 354 354 358 355 348 347 339 340 349 344 341 332 321 339 304 292 310 320 301 282 223 214 228 224 228 233 242 244 245 243 241 262 265 255 263 259 265 272 274 274 272
0 356 353 354 354 353 353 353 344 351 353 1 348 340 343 2 355 13 27 7 333 342 341 252 233 236 265 246 225 235 241 246 247 242 241 245 261 267 250 255 271 278 278 275 269
359 356 351 351 355 357 354 355 342 344 345 347 341 340 337 10 6 342 336 326 337 351 359 282 238 242 259 254 257 257 258 246 238 238 235 217 269 254 257 261 258 264 268 274 279
357 355 352 350 352 355 353 349 337 326 326 334 343 340 299 3 358 355 353 325 311 335 349 300 218 249 233 282 267 241 236 242 233 220 233 196 252 259 257 259 264 269 271 272 273
357 354 352 347 349 355 350 344 332 323 336 335 351 348 344 353 346 347 346 345 315 285 336 264 210 220 224 230 250 223 239 232 249 229 229 202 244 256 255 251 258 261 266 272 276
357 355 352 346 347 350 349 347 345 346 342 358 348 328 338 340 340 341 337 334 312 286 331 231 208 228 216 214 225 234 241 257 252 233 222 226 242 248 261 264 254 259 264 267 270
354 353 350 345 346 344 347 0 8 318 319 263 298 282 286 323 340 339 341 323 295 246 259 193 244 230 233 236 254 262 303 259 251 210 233 226 245 246 250 256 263 263 263 265 269
348 347 347 342 350 343 349 35 41 328 311 284 294 274 317 328 298 311 333 290 269 280 231 211 248 260 258 251 248 244 250 253 280 264 255 249 260 256 257 259 264 267 268 267 272
343 340 341 332 356 357 2 16 349 322 286 299 305 291 329 323 299 302 320 299 276 267 260 262 255 258 260 247 244 240 240 242 248 279 277 270 271 262 255 256 261 260 263 267 266
340 331 330 321 307 344 341 346 327 271 276 287 323 270 349 332 257 320 314 325 268 290 291 259 260 238 247 240 242 245 230 237 237 238 251 211 272 264 257 255 254 260 258 261 266
340 330 322 288 272 344 335 330 319 153 298 333 310 332 340 331 304 315 291 329 284 280 263 263 286 256 245 241 225 252 230 239 246 246 263 251 271 267 250 258 255 268 261 260 260
342 335 335 202 76 353 346 341 144 231 271 340 318 336 337 329 327 303 320 325 289 277 255 265 274 253 242 240 244 229 218 217 229 239 247 241 241 276 257 261 261 257 257 264 279
345 349 66 124 31 355 349 129 253 224 348 331 327 331 326 313 337 334 331 325 323 312 308 296 283 243 232 233 228 231 201 189 205 210 234 219 213 244 338 97 319 296 291 288 294
351 24 108 98 349 347 342 138 227 11 296 316 322 314 304 359 337 331 321 325 38 9 315 317 336 331 214 224 227 223 217 219 214 204 233 206 221 244 248 268 266 292 303 299 302
355 120 91 26 344 341 345 92 247 297 318 313 315 299 313 339 328 327 319 295 328 2 328 301 276 334 330 307 221 226 225 232 295 263 215 198 243 267 267 281 277 298 332 331 326
357 142 52 35 348 344 71 291 260 276 327 311 288 279 299 325 326 335 307 252 303 10 326 274 292 191 255 360 314 250 252 207 214 230 212 215 234 245 127 233 42 20 2 346 340
358 128 354 331 343 30 66 287 295 297 324 285 273 285 286 310 293 314 269 290 321 338 336 295 249 292 292 221 170 266 219 241 251 238 282 267 155 170 112 70 20 9 354 348 344
357 307 5 355 10 49 346 318 308 294 226 285 273 268 262 301 288 288 256 276 326 329 319 325 298 289 287 289 278 253 293 239 244 226 239 283 271 112 104 27 3 350 342 342 343
343 310 342 355 32 340 330 294 267 292 311 282 279 281 288 289 293 253 278 279 308 317 304 350 287 309 315 160 84 283 259 277 292 271 253 241 243 170 285 327 337 334 340 343 343
350 334 351 46 66 14 334 315 317 273 291 259 293 289 284 287 257 280 281 293 284 292 281 319 254 253 268 303 319 291 285 286 268 259 250 239 260 267 287 306 319 327 329 334 339
5 30 353 317 348 315 292 274 293 291 312 312 278 245 280 282 295 278 285 294 284 281 275 271 266 250 255 268 276 276 279 279 260 259 250 260 255 267 285 299 311 316 312 318 327
8 351 331 290 297 299 270 266 262 313 321 284 271 283 300 284 281 291 295 284 259 250 218 202 260 264 254 259 264 273 274 262 256 255 255 254 258 271 284 287 291 301 301 306 317
342 312 273 273 293 298 283 314 304 318 294 261 278 293 285 288 293 287 283 277 263 249 234 233 235 249 265 273 288 274 250 247 254 253 252 240 250 260 265 271 280 287 290 297 301
Wind_Speed_850mb
26 26 26 26 25 26 26 25 25 27 29 33 32 33 34 36 34 37 37 25 28 33 36 34 22 15 33 21 26 23 14 25 35 26 13 4 15 9 10 14 9 7 7 10 12
29 29 29 30 31 31 28 26 28 31 33 35 37 36 35 38 37 34 17 21 9 13 28 41 34 29 18 25 23 23 19 33 17 27 14 26 22 13 9 13 13 16 14 6 9
33 33 34 35 34 32 31 31 30 30 32 33 33 32 30 32 27 5 5 5 16 21 12 18 35 26 34 21 32 25 39 42 35 37 33 39 36 21 17 24 32 20 2 8 16
35 35 36 38 37 34 31 28 32 35 35 33 36 33 30 26 8 8 14 26 31 28 16 6 21 19 19 37 41 29 48 57 38 26 15 31 40 36 43 56 34 35 41 43 44
36 36 36 37 35 33 28 32 38 42 39 32 33 28 30 21 10 24 25 30 28 34 19 10 19 28 30 22 42 47 45 41 59 42 28 22 54 45 53 55 52 59 50 53 48
35 35 35 35 32 29 24 27 36 37 31 27 35 36 28 10 27 15 17 14 19 31 20 16 10 23 22 32 38 26 50 58 49 39 43 41 62 48 49 39 51 49 63 55 46
35 34 34 35 33 29 26 26 30 35 33 32 45 31 12 11 29 17 25 23 26 28 34 15 22 21 4 21 26 38 38 26 35 57 40 22 47 70 60 60 58 67 63 67 76
35 34 33 35 32 28 26 29 32 32 29 29 33 25 7 31 38 40 37 28 24 20 27 13 26 15 22 19 17 22 25 44 53 23 22 38 60 70 63 61 70 67 68 64 66
37 34 33 33 30 29 31 33 34 21 19 26 17 17 9 32 41 46 33 32 25 15 14 11 11 16 15 26 18 25 42 55 39 47 35 35 56 57 66 41 48 47 52 56 58
40 35 32 31 29 29 34 36 19 6 17 7 12 11 12 33 46 36 30 34 22 11 3 4 11 16 21 26 36 40 32 35 42 30 38 45 66 54 50 40 49 48 53 59 66
42 38 31 26 25 25 36 23 14 4 21 10 12 18 32 33 37 31 30 27 14 11 18 4 17 32 36 33 42 36 21 42 36 14 29 53 60 49 50 61 62 63 60 63 71
46 42 33 21 19 18 28 15 13 13 17 21 24 23 26 22 24 32 28 8 5 19 7 10 30 27 25 29 30 38 39 29 21 23 16 28 44 33 32 43 55 57 63 65 69
48 43 33 16 7 20 11 16 11 15 8 20 13 11 18 35 18 23 22 11 14 17 21 33 32 14 19 32 37 37 42 43 28 23 30 25 48 48 45 50 62 66 68 67 70
50 46 32 13 3 16 4 19 27 6 4 5 4 2 26 33 8 41 7 7 7 19 19 26 36 28 27 28 30 40 22 25 33 28 29 12 24 31 28 35 40 51 54 66 70
52 47 29 10 5 10 13 21 9 12 7 16 4 10 35 11 22 15 10 23 28 31 17 36 31 29 31 31 30 27 37 28 16 20 22 40 23 41 26 39 37 32 49 60 70
52 38 21 5 3 14 22 15 13 5 6 6 10 27 34 21 30 15 25 29 22 22 27 44 44 35 35 24 19 28 27 42 35 28 32 39 20 45 35 46 40 36 54 49 39
45 24 10 13 5 19 30 7 4 5 10 7 16 22 35 11 25 27 32 23 11 13 23 30 37 39 38 36 23 16 22 16 21 22 37 19 26 46 14 11 5 18 30 42 45
32 9 11 5 8 20 28 2 4 2 9 16 16 36 9 17 25 27 22 19 3 13 20 14 16 15 14 46 36 26 30 17 29 24 33 26 25 17 16 33 27 14 20 32 42
26 4 6 4 9 21 10 1 2 3 11 18 32 9 4 10 16 17 25 12 4 13 11 11 5 9 29 9 31 30 19 37 15 4 16 23 35 34 35 37 23 27 25 36 43
28 8 7 5 16 17 3 3 4 4 15 11 9 5 11 20 18 20 14 7 9 11 6 4 13 7 6 9 8 15 9 21 16 10 15 18 34 17 2 13 11 22 30 49 55
20 2 13 9 18 7 3 5 9 9 12 6 9 14 16 20 10 18 12 24 6 22 21 11 6 10 11 10 12 17 12 10 19 22 7 5 6 4 21 21 21 27 38 53 54
19 2 13 11 4 3 1 10 15 12 5 8 11 18 16 12 17 15 15 12 28 25 24 9 8 11 21 15 18 5 12 18 15 37 23 18 9 4 15 22 28 37 56 55 40
24 9 10 15 3 5 8 11 10 8 10 6 8 6 7 14 12 13 20 15 28 13 6 12 3 12 12 11 9 1 7 10 14 11 28 26 14 16 17 37 43 50 60 53 36
15 7 8 12 7 4 11 8 9 10 22 10 20 21 14 14 16 14 26 20 21 32 33 28 12 18 18 18 13 18 22 23 15 18 27 38 44 56 43 42 43 59 56 47 36
14 5 6 8 4 16 8 9 16 9 8 22 8 13 11 12 32 35 31 27 32 49 24 6 19 26 30 32 32 35 37 36 34 32 33 31 41 51 38 38 42 55 54 57 48
12 8 7 15 18 14 6 5 11 9 9 18 26 25 30 30 33 49 44 32 15 6 9 12 7 9 22 29 31 42 42 42 48 44 39 47 52 42 50 61 55 55 61 54 45
18 11 6 8 6 7 5 6 15 29 24 23 28 31 32 37 43 59 65 68 41 15 10 8 10 13 29 17 19 25 46 50 44 42 35 45 43 45 43 41 42 50 49 51 45
Wind_Direction_850mb
11 5 3 1 357 351 348 345 341 334 329 327 326 324 327 322 315 306 304 271 265 257 247 251 239 198 204 213 195 189 227 236 234 213 228 195 231 253 229 253 268 218 130 29 16
7 6 2 358 354 350 346 339 334 335 334 332 331 332 338 333 324 306 291 269 276 302 269 244 230 214 211 207 203 197 219 229 224 220 224 241 244 253 281 235 260 241 263 266 58
3 1 359 357 354 351 348 347 347 344 342 340 342 345 343 340 331 20 71 122 335 334 320 259 227 210 222 215 207 213 229 229 234 230 228 250 256 258 257 265 252 254 303 281 249
0 358 357 356 353 352 354 355 351 346 343 342 347 351 345 343 347 342 287 291 296 310 315 297 217 208 229 219 217 243 233 237 246 233 230 245 263 254 247 250 259 270 286 286 283
359 356 355 355 354 354 358 355 348 347 339 340 349 344 341 332 321 339 304 292 310 320 301 282 223 214 228 224 228 233 242 244 245 243 241 262 265 255 263 259 265 272 274 274 272
0 356 353 354 354 353 353 353 344 351 353 1 348 340 343 2 355 13 27 7 333 342 341 252 233 236 265 246 225 235 241 246 247 242 241 245 261 267 250 255 271 278 278 275 269
359 356 351 351 355 357 354 355 342 344 345 347 341 340 337 10 6 342 336 326 337 351 359 282 238 242 259 254 257 257 258 246 238 238 235 217 269 254 257 261 258 264 268 274 279
357 355 352 350 352 355 353 349 337 326 326 334 343 340 299 3 358 355 353 325 311 335 349 300 218 249 233 282 267 241 236 242 233 220 233 196 252 259 257 259 264 269 271 272 273
357 354 352 347 349 355 350 344 332 323 336 335 351 348 344 353 346 347 346 345 315 285 336 264 210 220 224 230 250 223 239 232 249 229 229 202 244 256 255 251 258 261 266 272 276
357 355 352 346 347 350 349 347 345 346 342 358 348 328 338 340 340 341 337 334 312 286 331 231 208 228 216 214 225 234 241 257 252 233 222 226 242 248 261 264 254 259 264 267 270
354 353 350 345 346 344 347 0 8 318 319 263 298 282 286 323 340 339 341 323 295 246 259 193 244 230 233 236 254 262 303 259 251 210 233 226 245 246 250 256 263 263 263 265 269
348 347 347 342 350 343 349 35 41 328 311 284 294 274 317 328 298 311 333 290 269 280 231 211 248 260 258 251 248 244 250 253 280 264 255 249 260 256 257 259 264 267 268 267 272
343 340 341 332 356 357 2 16 349 322 286 299 305 291 329 323 299 302 320 299 276 267 260 262 255 258 260 247 244 240 240 242 248 279 277 270 271 262 255 256 261 260 263 267 266
340 331 330 321 307 344 341 346 327 271 276 287 323 270 349 332 257 320 314 325 268 290 291 259 260 238 247 240 242 245 230 237 237 238 251 211 272 264 257 255 254 260 258 261 266
340 330 322 288 272 344 335 330 319 153 298 333 310 332 340 331 304 315 291 329 284 280 263 263 286 256 245 241 225 252 230 239 246 246 263 251 271 267 250 258 255 268 261 260 260
342 335 335 202 76 353 346 341 144 231 271 340 318 336 337 329 327 303 320 325 289 277 255 265 274 253 242 240 244 229 218 217 229 239 247 241 241 276 257 261 261 257 257 264 279
345 349 66 124 31 355 349 129 253 224 348 331 327 331 326 313 337 334 331 325 323 312 308 296 283 243 232 233 228 231 201 189 205 210 234 219 213 244 338 97 319 296 291 288 294
351 24 108 98 349 347 342 138 227 11 296 316 322 314 304 359 337 331 321 325 38 9 315 317 336 331 214 224 227 223 217 219 214 204 233 206 221 244 248 268 266 292 303 299 302
355 120 91 26 344 341 345 92 247 297 318 313 315 299 313 339 328 327 319 295 328 2 328 301 276 334 330 307 221 226 225 232 295 263 215 198 243 267 267 281 277 298 332 331 326
357 142 52 35 348 344 71 291 260 276 327 311 288 279 299 325 326 335 307 252 303 10 326 274 292 191 255 360 314 250 252 207 214 230 212 215 234 245 127 233 42 20 2 346 340
358 128 354 331 343 30 66 287 295 297 324 285 273 285 286 310 293 314 269 290 321 338 336 295 249 292 292 221 170 266 219 241 251 238 282 267 155 170 112 70 20 9 354 348 344
357 307 5 355 10 49 346 318 308 294 226 285 273 268 262 301 288 288 256 276 326 329 319 325 298 289 287 289 278 253 293 239 244 226 239 283 271 112 104 27 3 350 342 342 343
343 310 342 355 32 340 330 294 267 292 311 282 279 281 288 289 293 253 278 279 308 317 304 350 287 309 315 160 84 283 259 277 292 271 253 241 243 170 285 327 337 334 340 343 343
350 334 351 46 66 14 334 315 317 273 291 259 293 289 284 287 257 280 281 293 284 292 281 319 254 253 268 303 319 291 285 286 268 259 250 239 260 267 287 306 319 327 329 334 339
5 30 353 317 348 315 292 274 293 291 312 312 278 245 280 282 295 278 285 294 284 281 275 271 266 250 255 268 276 276 279 279 260 259 250 260 255 267 285 299 311 316 312 318 327
8 351 331 290 297 299 270 266 262 313 321 284 271 283 300 284 281 291 295 284 259 250 218 202 260 264 254 259 264 273 274 262 256 255 255 254 258 271 284 287 291 301 301 306 317
342 312 273 273 293 298 283 314 304 318 294 261 278 293 285 288 293 287 283 277 263 249 234 233 235 249 265 273 288 274 250 247 254 253 252 240 250 260 265 271 280 287 290 297 301